Location: Fours
(44.3167°N, 6.7000°E)
Time: 05:03:07
(UTC+00:00)

USA 267 - Pass Details

Date: 30 November 2020
Orbit: 1100 x 1107 km, 123.0° (Epoch: 18 January)

Event Time Altitude Azimuth Distance (km) Brightness Sun altitude
Exits shadow 18:18:23 50° 67° (ENE) 1,379 3.3 -24.9°
Maximum altitude 18:19:34 57° 30° (NNE) 1,286 3.3 -25.1°
Drops below altitude 10° 18:25:56 10° 314° (NW) 2,968 6.0 -26.2°
Sets 18:28:28 0° 310° (NW) 3,929 6.8 -26.7°
